Regional Weather Roundup
Issued by NWS

Home | Current Version | Previous Version | Graphics & Text | Print | Product List | Glossary On
Versions: 1 2 3 4 5 6 7 8 9 10 11 12 13 14 15 16 17 18 19 20 21 22 23 24 25 26 27 28 29 30 31 32 33 34 35 36 37 38 39 40 41 42 43 44 45 46 47 48 49 50
000
ASUS43 KDMX 030908
RWRIA

WEATHER ROUNDUP FOR IOWA
NATIONAL WEATHER SERVICE DES MOINES IA
400 AM CDT TUE MAY 03 2016

NOTE: "FAIR" INDICATES FEW OR NO CLOUDS BELOW 12,000 FEET WITH NO
SIGNIFICANT WEATHER AND/OR OBSTRUCTIONS TO VISIBILITY.

* - THESE STATIONS ARE NOT NWS STATIONS...THUS NOT UNDER NWS
QUALITY CONTROL.  THEY ALSO DO NOT REPORT WEATHER SUCH
AS PRECIPITATION OR FOG.

IAZ001>003-012>014-020>022-031>034-043>046-031000-
   NORTHWEST IOWA

CITY           SKY/WX    TMP DP  RH WIND       PRES   REMARKS
CARROLL *      PTCLDY    43  39  87 CALM      30.03S
CHEROKEE *     CLEAR     37  37 100 CALM      30.02S FOG
DENISON *      CLEAR     39  37  93 CALM      30.02S
LE MARS *        N/A     41  39  93 CALM      30.03S
ORANGE CITY *  CLEAR     46  39  76 CALM      30.02S
SHELDON *      CLEAR     41  39  93 CALM      30.01R
SIOUX CITY     CLEAR     44  40  85 CALM      30.02F
SPENCER        CLEAR     39  37  92 W3        30.02S
STORM LAKE *   CLEAR     46  37  71 SW7       30.03S
$$

IAZ055>058-069>071-079>083-090>094-031000-
   SOUTHWEST IOWA

CITY           SKY/WX    TMP DP  RH WIND       PRES   REMARKS
ATLANTIC *     CLEAR     39  39 100 CALM      30.05S
AUDUBON *      CLEAR     37  36  93 CALM      30.05S
CLARINDA *       N/A    N/A N/A N/A MISG        N/A
COUNCIL BLFS * CLEAR     48  41  76 SW8       30.04S
CRESTON *      CLOUDY    46  41  81 SW3       30.06S
HARLAN  *      CLEAR     39  37  93 CALM      30.08R
LAMONI         CLOUDY    45  41  86 W5        30.05S
SHENANDOAH *   CLEAR     43  43 100 CALM      30.06S
$$

IAZ047>049-059>061-072>074-084-031000-
   CENTRAL IOWA

CITY           SKY/WX    TMP DP  RH WIND       PRES   REMARKS
AMES           CLEAR     41  39  93 CALM      30.03S
ANKENY *       CLEAR     39  39 100 CALM      30.04S
BOONE *        CLEAR     46  41  81 W7        30.02S
CHARITON *     CLEAR     43  43 100 W6        30.04S
DES MOINES     PTCLDY    45  40  82 CALM      30.04S
GRINNELL*      PTCLDY    41  39  93 W5        30.04S
KNOXVILLE *    CLEAR     43  41  93 SW5       30.03R
MARSHALLTOWN   CLEAR     44  40  85 W3        30.02S
NEWTON *       CLEAR     45  45 100 W6        30.03S
PELLA *        CLEAR     43  43 100 W3        30.05S
$$

IAZ004>006-015-016-023>025-035-036-031000-
   NORTH CENTRAL IOWA

CITY           SKY/WX    TMP DP  RH WIND       PRES   REMARKS
ALGONA *       CLEAR     43  41  93 SW8       30.02R
CLARION *      CLEAR     41  41 100 S6        30.02S
ESTHERVILLE    CLEAR     41  38  89 W3        30.01S
FORT DODGE *   CLEAR     41  36  81 S3        30.03S
MASON CITY     CLEAR     47  40  76 SW9       30.02S
FOREST CITY *  CLEAR     36  36 100 CALM      30.01S FOG
WEBSTER CITY * CLEAR     43  41  93 SW9       30.01S
IOWA FALLS *     N/A     43  39  87 SW3       30.03F
$$

IAZ007>011-017>019-026>030-037>042-050>054-066-031000-
   NORTHEAST IOWA

CITY           SKY/WX    TMP DP  RH WIND       PRES   REMARKS
CEDAR RAPIDS   CLEAR    N/A N/A N/A W5        30.01S
CHARLES CITY * CLEAR     45  43  93 W8        30.01S
CLINTON *      CLEAR     41  40  96 W5        30.01S
DECORAH *      PTCLDY    46  39  76 CALM      29.99S
DUBUQUE        CLEAR     45  39  79 NW6       30.00S
MONTICELLO *   CLEAR     39  37  93 CALM      30.01S
OELWEIN *      CLEAR     43  41  93 W6        30.02R
WATERLOO       CLEAR     40  38  93 CALM      30.01S
$$

IAZ064-065-067-068-078-031000-
   EAST CENTRAL IOWA

CITY           SKY/WX    TMP DP  RH WIND       PRES   REMARKS
DAVENPORT      CLEAR     42  39  89 W6        30.01S
IOWA CITY      CLEAR     43  39  86 CALM      30.03S
MT. PLEASANT * PTCLDY    50  45  81 W5        30.03S
MUSCATINE *    CLEAR     46  43  87 NW5       30.02S
QUAD CITIES    PTCLDY    40  38  93 CALM      30.01R
$$

IAZ062-063-075>077-085>089-095>099-031000-
   SOUTHEAST IOWA

CITY           SKY/WX    TMP DP  RH WIND       PRES   REMARKS
BURLINGTON     CLOUDY    49  45  86 NW6       30.02S
FAIRFIELD *    PTCLDY    45  43  93 NW7       30.03S
FORT MADISON * CLOUDY    48  46  93 NW5       30.03S
KEOKUK *       CLOUDY    50  46  87 CALM      30.02S
OSKALOOSA *      N/A     41  39  93 W7        30.04S
OTTUMWA        CLEAR     39  39 100 CALM      30.03S
WASHINGTON *   CLEAR     43  43 100 W7        30.04S
$$

ABBREVIATIONS USED IN REMARKS
   TC - TEMPERATURES IN CELSIUS
  WCI - WIND CHILL INDEX
   HX - HEAT INDEX
  VSB - VISIBILITY
$$





USA.gov is the U.S. government's official web portal to all federal, state and local government web resources and services.